Location: Unspecified
(43.8044°N, 11.0278°E)
Time: 10:37:34
(UTC+02:00)

Okean 3 - Visible Passes

Search period start: 28 July 2016 00:00
Search period end: 07 August 2016 00:00
Orbit: 579 x 602 km, 82.5° (Epoch: 27 July)

Date Brightness Start Highest point End Pass type
(mag) Time Alt. Az. Time Alt. Az. Time Alt. Az.
28 Jul 3.7 22:06:44 10° NNW 22:11:01 71° W 22:14:50 12° S visible
29 Jul 4.4 22:15:20 10° NNW 22:19:26 46° W 22:23:29 10° SSW visible
30 Jul 5.2 22:24:05 10° NNW 22:27:50 30° W 22:31:33 10° SSW visible
31 Jul 5.8 22:32:59 10° NW 22:36:11 21° W 22:39:22 10° SW visible
01 Aug 6.2 22:42:14 10° NW 22:44:30 14° W 22:46:45 10° WSW visible
02 Aug 3.4 21:11:56 10° N 21:16:13 76° E 21:20:26 10° SSE visible
03 Aug 3.8 21:20:26 10° NNW 21:24:41 71° W 21:28:53 10° S visible
04 Aug 4.6 21:29:02 10° NNW 21:33:07 46° W 21:37:08 10° SSW visible
05 Aug 5.4 21:37:46 10° NNW 21:41:31 30° W 21:45:12 10° SSW visible
06 Aug 6.0 21:46:41 10° NW 21:49:51 21° W 21:53:00 10° SW visible
